Change the Weather History Date:

Tuesday, March 4, 2014

  Actual Average Record
Temperature  
Mean Temperature 6 °F -  
Max Temperature 15 °F 35 °F 47 °F (1992)
Min Temperature -4 °F 17 °F -6 °F (1982)
Degree Days  
Heating Degree Days 60    
Moisture  
Dew Point 3 °F    
Average Humidity 76    
Maximum Humidity 87    
Minimum Humidity 54    
Precipitation  
Precipitation 0.00 in - - ()
Sea Level Pressure  
Sea Level Pressure 30.35 in    
Wind  
Wind Speed 1 mph (NNE)    
Max Wind Speed 6 mph    
Max Gust Speed -    
Visibility 6 miles    
Events Snow    
Averages and records for this station are not official NWS values.
T = Trace of Precipitation, MM = Missing Value Source: NWS Daily Summary

Daily Weather History Graph

Daily Weather History Graph

Search for Another Location

Airport or City:

Trip Planner

Search our weather history database for the weather conditions in past years. The results will help you decide how hot, cold, wet, or windy it might be!

Date:

Astronomy

Mar. 04, 2014 Rise Set
Actual Time 6:32 AM EST 5:54 PM EST
Civil Twilight 6:04 AM EST 6:23 PM EST
Nautical Twilight 5:31 AM EST 6:55 PM EST
Astronomical Twilight 4:58 AM EST 7:29 PM EST
Moon 8:10 AM EST (3/4) 10:07 PM EST (3/4)
Length of Visible Light 12h 18m
Length of Day
11h 21m
Waxing Crescent, 14% of the Moon is Illuminated
Mar 4
Waxing Crescent
Mar 8
First Quarter
Mar 16
Full
Mar 23
Last Quarter
Mar 30
New

Hourly Weather History & Observations

Time (EST) Temp. Windchill Dew Point Humidity Pressure Visibility Wind Dir Wind Speed Gust Speed Precip Events Conditions
12:53 AM 3.9 °F - -0.9 °F 80% 30.42 in 4.0 mi Calm Calm - 0.00 in Snow Light Snow
1:20 AM 3.9 °F -3.4 °F -2.0 °F 76% 30.39 in 9.0 mi ESE 3.5 mph - 0.00 in   Overcast
1:53 AM 1.9 °F - -2.9 °F 80% 30.42 in 10.0 mi Calm Calm - 0.00 in   Overcast
2:27 AM -0.0 °F - -5.1 °F 79% 30.38 in 10.0 mi Calm Calm - N/A   Scattered Clouds
2:53 AM -2.0 °F - -6.0 °F 83% 30.41 in 10.0 mi Calm Calm - N/A   Clear
3:46 AM -4.0 °F - -9.0 °F 79% 30.38 in 10.0 mi Calm Calm - N/A   Mostly Cloudy
3:53 AM -2.9 °F - -8.0 °F 79% 30.41 in 10.0 mi Calm Calm - N/A   Mostly Cloudy
4:53 AM -2.0 °F - -6.0 °F 83% 30.43 in 4.0 mi Calm Calm - 0.00 in Snow Light Snow
5:53 AM -0.0 °F - -5.1 °F 79% 30.43 in 5.0 mi Calm Calm - 0.00 in Snow Light Snow
6:53 AM -0.9 °F - -6.0 °F 79% 30.42 in 5.0 mi Calm Calm - 0.00 in   Haze
7:05 AM -2.0 °F - -6.0 °F 83% 30.39 in 8.0 mi Calm Calm - N/A   Mostly Cloudy
7:53 AM 1.0 °F - -2.0 °F 87% 30.44 in 10.0 mi Calm Calm - N/A   Overcast
8:53 AM 5.0 °F - -0.0 °F 80% 30.43 in 10.0 mi Calm Calm - N/A   Overcast
9:53 AM 7.0 °F - -2.0 °F 67% 30.42 in 10.0 mi Calm Calm - 0.00 in   Scattered Clouds
10:53 AM 10.0 °F - -0.0 °F 64% 30.41 in 10.0 mi Calm Calm - N/A   Mostly Cloudy
11:53 AM 12.0 °F 5.9 °F 1.0 °F 61% 30.39 in 10.0 mi North 3.5 mph - 0.00 in   Overcast
12:53 PM 14.0 °F 5.1 °F 1.9 °F 59% 30.37 in 10.0 mi NW 5.8 mph - N/A   Overcast
1:53 PM 15.1 °F 9.4 °F 1.0 °F 54% 30.34 in 10.0 mi North 3.5 mph - N/A   Overcast
2:14 PM 15.1 °F - 3.0 °F 59% 30.31 in 1.8 mi Calm Calm - 0.00 in Snow Light Snow
2:32 PM 15.1 °F - 5.0 °F 64% 30.31 in 1.8 mi Calm Calm - 0.00 in Snow Light Snow
2:53 PM 14.0 °F 8.2 °F 6.1 °F 71% 30.34 in 1.8 mi NW 3.5 mph - 0.00 in Snow Light Snow
3:01 PM 14.0 °F 8.2 °F 7.0 °F 74% 30.30 in 2.0 mi WNW 3.5 mph - 0.00 in Snow Light Snow
3:14 PM 14.0 °F - 7.0 °F 74% 30.30 in 2.0 mi Calm Calm - 0.00 in Snow Light Snow
3:26 PM 14.0 °F - 8.1 °F 77% 30.30 in 1.8 mi Calm Calm - 0.00 in Snow Light Snow
3:33 PM 14.0 °F - 8.1 °F 77% 30.29 in 2.0 mi Calm Calm - 0.00 in Snow Light Snow
3:53 PM 14.0 °F - 8.1 °F 77% 30.33 in 3.0 mi Calm Calm - 0.00 in Snow Light Snow
4:20 PM 14.0 °F - 8.1 °F 77% 30.28 in 2.0 mi Calm Calm - 0.00 in Snow Light Snow
4:30 PM 15.1 °F - 8.1 °F 74% 30.29 in 5.0 mi Calm Calm - 0.00 in Snow Light Snow
4:53 PM 15.1 °F - 8.1 °F 74% 30.31 in 7.0 mi Calm Calm - 0.00 in Snow Light Snow
5:34 PM 15.1 °F - 8.1 °F 74% 30.28 in 2.5 mi Calm Calm - 0.00 in Snow Light Snow
5:45 PM 15.1 °F 9.4 °F 9.0 °F 77% 30.28 in 5.0 mi NW 3.5 mph - 0.00 in Snow Light Snow
5:53 PM 15.1 °F - 9.0 °F 77% 30.31 in 8.0 mi Calm Calm - 0.00 in   Overcast
6:53 PM 15.1 °F - 10.0 °F 80% 30.31 in 5.0 mi Calm Calm - 0.00 in Snow Light Snow
7:53 PM 14.0 °F 8.2 °F 10.0 °F 84% 30.32 in 3.0 mi SSE 3.5 mph - 0.00 in Snow Light Snow
8:53 PM 14.0 °F 8.2 °F 10.0 °F 84% 30.31 in 5.0 mi East 3.5 mph - 0.00 in Snow Light Snow
9:53 PM 14.0 °F 8.2 °F 10.0 °F 84% 30.30 in 8.0 mi East 3.5 mph - 0.00 in   Overcast
10:53 PM 14.0 °F - 10.0 °F 84% 30.29 in 10.0 mi Calm Calm - 0.00 in   Overcast
11:53 PM 15.1 °F 9.4 °F 10.0 °F 80% 30.28 in 10.0 mi ENE 3.5 mph - 0.00 in   Overcast